Location: Ca�n Batista
(41.4099°N, 1.7752°E)
Time: 15:15:52
(UTC+00:00)

CZ-2C R/B - Pass Details

Date: 03 March 2021
Orbit: 783 x 871 km, 98.2° (Epoch: 21 April)

Event Time Altitude Azimuth Distance (km) Brightness Sun altitude
Rises 18:02:28 0° 25° (NNE) 3,419 5.6 -3.9°
Reaches altitude 10° 18:05:16 10° 38° (NE) 2,464 4.7 -4.4°
Maximum altitude 18:09:47 26° 93° (E) 1,580 3.6 -5.3°
Drops below altitude 10° 18:14:11 10° 149° (SSE) 2,401 4.8 -6.1°
Sets 18:16:52 0° 162° (SSE) 3,313 5.6 -6.6°
